Regional Weather Roundup
Issued by NWS New Orleans/Baton Rouge, LA

Home | Current Version | Previous Version | Graphics & Text | Print | Product List | Glossary On
Versions: 1 2 3 4 5 6 7 8 9 10 11 12 13 14 15 16 17 18 19 20 21 22 23 24 25 26 27 28 29 30 31 32 33 34 35 36 37 38 39 40 41 42 43 44 45 46 47 48 49 50
084
ASUS44 KLIX 271001
RWRLIX
NEW ORLEANS REGIONAL WEATHER ROUNDUP
NATIONAL WEATHER SERVICE NEW ORLEANS LA
500 AM CDT WED AUG 27 2014

NOTE: "FAIR" INDICATES FEW OR NO CLOUDS BELOW 12,000 FEET WITH NO
      SIGNIFICANT WEATHER AND/OR OBSTRUCTIONS TO VISIBILITY.
      SKY/WX - SKY CONDITION AND SIGNIFICANT WEATHER.
      TMP - AIR TEMPERATURE.     DP    - DEWPOINT TEMPERATURE.
      RH  - RELATIVE HUMIDITY.   PRES  - PRESSURE.
      HI  - HEAT INDEX.          WCI   - WIND CHILL INDEX.

*  THESE STATIONS ARE NOT NWS OR FAA STATIONS AND ARE NOT UNDER
   NWS QUALITY CONTROL.

LAZ038-040-048-061>063-065>067-069-271100-
SOUTHEAST LOUISIANA

CITY           SKY/WX    TMP DP  RH WIND       PRES   REMARKS
N.O. AUDUBON   NOT AVBL
N.O. INTL ARPT MOCLDY    81  74  79 NE6       29.96S
N.O. LAKEFRONT PTCLDY    82  76  81 NE12      29.97S
N.O. DOWNTOWN*   N/A     81  72  74 NE3       29.97R
SLIDELL        PTCLDY    74  72  93 N3        29.97S
BATON ROUGE    CLEAR     72  69  90 NE3       29.98S
BOOTHVILLE     CLEAR     82  75  79 E5        29.95S
BELLE CHASSE   PTCLDY    78  73  84 NE6       29.96S
BOGALUSA*        N/A     71  67  88 CALM      30.00F
GALLIANO*      NOT AVBL
NEW ROADS*       N/A     73  69  89 CALM      29.98S
GONZALES*        N/A     74  74 100 CALM      29.96S
HAMMOND*       NOT AVBL
HOUMA*         CLEAR     75  72  89 CALM      29.95S
PORT FOURCHON* PTSUNNY   84  73  70 E10G16    29.96R

$$

MSZ070-080>082-271100-
SOUTHERN MISSISSIPPI

CITY           SKY/WX    TMP DP  RH WIND       PRES   REMARKS
MCCOMB         CLEAR     73  65  75 CALM      30.00S
GULFPORT       CLEAR     76  73  91 NE3       29.97S
BILOXI         MOCLDY    76  73  90 NE3       29.98R
PASCAGOULA     PTCLDY    73  70  90 CALM      29.98S

$$

COASTAL OBSERVATIONS
LAKE AND NEARSHORE STATIONS

STATION/POSITION TIME  TEMP    WIND        PRES    WAVE
                       AIR SEA DIR/SP/G            HT/PER
                 (UTC) (F)     (DEG/KT/KT) (MB)    (FT/S)
PASCAGOULA       0900   78      20/  8/  9 1014.5
WAVELAND YACHT   0900   79      40/  9/ 10 1014.3
GRAND ISLE       0900   83 84  100/  7/ 12 1014.5
SOUTHWEST PASS   0900   84 87  110/ 19/ 20 1014.0
NEW CANAL        0900   83 84   60/ 10/ 12 1014.9
SHELL BEACH      0900   83 81   70/  8/ 10 1014.3

OFFSHORE STATIONS

STATION/POSITION TIME  TEMP    WIND        PRES    WAVE
                       AIR SEA DIR/SP/G            HT/PER
                 (UTC) (F)     (DEG/KT/KT) (MB)    (FT/S)
64 S DAUPHIN ISL 0851   85 86   80/ 16/ 19 1014.2

$$




USA.gov is the U.S. government's official web portal to all federal, state and local government web resources and services.